Погода в Пинске

Погода в Пинске : погода сейчас, прогноз погоды и архив. Всё, что Вы хотите узнать о погоде в Пинске!

Хотите узнать прогноз погоды в Пинске? Тогда Вам сюда: Погода в Пинске

Поиск расширенной информации на нашем сайте:

Другие новости

Новости СМИ2

Главная страница сайта

Новости сайта

03.07.2017

Напоминаем, что на нашем специализированном сайте Метеоцентр.Азия вы можете получить высокодетализированные автоматические прогнозы погоды по пунктам России, СНГ и мира в авиационном формате (включающие направление и скорость ветра, видимость, явления погоды, количество и форму облачности, нижнюю и верхнюю границу облачности).


Погода в Пинске - сегодня

Время (UTC), дата Ветер
(°,м/с) 
Видим.   Явления Облачность Т
(°С)
Тd
(°С)
f(%) Тe
(°С)
Pmin
(гПа)
dP
(гПа)
Po
(мм)
O2
(г/м3)
Тmin Tmax R s Состояние
почвы
15 18.10.17 240 (ЮЗ) 10 км    8/0 верхняя 
[Ci fib]
+18.1 +13.1 73 +26  1014.9  -0.4  749  280           
18 18.10.17 тихо ()   6000 м  дымка  4/0 верхняя 
[Ci fib]
+13 +11.9 93 +17  1015.3  749  286    +20.9       
21 18.10.17 тихо ()   0600 м  туман  ?/?  
+10.5 +10.2 98 +12  1015.7  0.3  749  289           
00 19.10.17 070 (В) 3500 м  дымка{туман}  9/0 средняя 
[Ac und]
+10.1 +9.8 98 +12  1016.4  0.6  749  289           
03 19.10.17 100 (В) 3500 м  дымка  4/0 средняя 
[Ac trans]
+9 +8.7 98 +10  1016.7  0.2  750  291           
06 19.10.17 080 (В) 3800 м  дымка  10/0 средняя, верхняя 
[Ac trans|Ci fib]
+9 +8.5 97 +10  1017.1  0.4  750  291  +8.5         
09 19.10.17 120 (ЮВ) 15000 м    8/0 верхняя 
[Ci fib]
+13.6 +8.7 72 +14  1017.4  0.6  750  286           
12 19.10.17 060 (СВ) 12000 м    10/0 средняя, верхняя 
[Ac trans|Ci fib]
+16.3 +10.4 68 +19  1016.7  -0.5  750  283           
15 19.10.17 070 (В) 10 км    8/8 930 м 
[Sc]
+13.6 +9.3 75 +14  1017.2  0.3  750  286           
18 19.10.17 060 (СВ) 10 км    9/9 960 м 
[Sc]
+12.2 +9.1 81 +13  1018.6  1.3  751  288    +17       
21 19.10.17 060 (СВ) 9000 м  дымка  9/9 1080 м 
[Sc]
+10.4 +8.9 90 +12  1019.6  0.9  752  290           
00 20.10.17 070 (В) 3900 м  дымка  8/0 верхняя 
[Ci fib]
+8.4 +7.7 95 +9  1020.1  0.3  752  293           
03 20.10.17 040 (СВ) 9000 м  дымка  9/9 1020 м 
[Sc]
+7.7 +6.1 90 +9  1020.5  0.4  752  294           
06 20.10.17 070 (В) 9000 м  дымка  9/9 1200 м 
[Sc]
+8.2 +5.6 84 +8  1021.1  0.6  753  294  +7.4         
09 20.10.17 050 (СВ) 10 км    9/9 1080 м 
[Sc]
+9.8 +6 77 +9  1021.5  0.5  753  292           
12 20.10.17 110 (В) 10 км    9/9 1170 м 
[Sc]
+11.2 +6.7 74 +12  1021.1  -0.3  753  290           
15 20.10.17 110 (В) 10 км    9/9 800 м 
[Sc]
+11.3 +6.2 71 +12  1020.6  -0.5  753  290           
18 20.10.17 130 (ЮВ) 10 км    9/0 средняя 
[Ac trans]
+10.5 +4.8 68 +11  1020.9  0.3  753  291    +11.4       
21 20.10.17 130 (ЮВ) 10 км    10/6 870 м средняя 
[Sc|Ac trans]
+10.1 +5.3 72 +10  1020.1  -0.8  752  291           
00 21.10.17 140 (ЮВ) 10 км    9/0 средняя 
[Ac und]
+9.8 +5.7 76 +10  1019.1  -1  751  291           
03 21.10.17 130 (ЮВ) 10 км    10/10 270 м 
[St]
+9.5 +6.3 80 +10  1017.9  -1.2  751  291           
06 21.10.17 120 (ЮВ) 10 км    10/10 300 м 
[St]
+9.3 +6.7 84 +9  1017  -0.9  750  291  +9.3         
09 21.10.17 150 (ЮВ) 10 км    9/9 1020 м 
[Sc]
+10.7 +7.9 83 +11  1015.9  -1  749  289           
12 21.10.17 130 (ЮВ) 8000 м  дымка  10/10 210 м 
[St]
+9.7 +8.2 90 +10  1014.4  -1.6  748  290           
15 21.10.17 140 (ЮВ) 4600 м  дымка  10/10 210 м 
[St]
+7.1 +6.2 94 +7  1014.6  0.1  748  293           
Время (UTC), дата Ветер
(°,м/с) 
Видим.   Явления Облачность Т
(°С)
Тd
(°С)
f(%) Тe
(°С)
Pmin
(гПа)
dP
(гПа)
Po
(мм)
O2
(г/м3)
Тmin Tmax R s Состояние
почвы

Для получения пояснительной информации подведите курсор к названию столбца.

ПОГОДА в Пинске - архив

Всё, что Вы хотите узнать о погоде в Пинске - удобно и подробно!

Выберите нужную дату (начиная с 1 января 2015* года) и нажмите кнопку "Найти".
Будут отображены архивные сводки погоды по пункту Пинск, начиная с указанной даты.


Отображать данные в формате CSV (для использования в таблицах Excel)


Внимание! Наш архив погоды предназначен исключительно для личного некоммерческого использования в познавательных целях. Если Вам необходимы официальные справки о состоянии погоды (для производственных, юридических, коммерческих и т.п. целей), обращайтесь в органы Росгидромета.

*Примечание: данная дата относится к архиву по метеостанциям СССР (Россия, СНГ, Балтия).
Архив по метеостанциям Зарубежной Европы и Азии (кроме Китая) хранится 10 дней, по другим регионам земного шара (Китай, Африка, Америка, Австралия, Океания) - 1 день.

Пинск - район местоположения метеостанции


Название, широта, долгота, высота метеостанции:
Пинск 52.1°ш. 26.1°д. 142 м над ур. моря [Беларусь]

Дополнительная информация

В oтличие oт бoльшинства пoгoдных сайтoв мы публикуем пoдрoбную метеoинфoрмацию в детальнoм прoфессиoнальнoм фoрмате.

Характеристики температуры и влажнoсти вoздуха измеряются на высoте 2 м в тени вдали oт зданий и деревьев.
Скoрoсть ветра измеряется на высoте 10 м (на урoвне рoста челoвека скoрoсть ветра ниже в 1.5-2 раза). Если метеoстанция нахoдится в гoрoде или в лесу, тo скoрoсть ветра занижена на 2-4 м/с пo сравнению с oткрытым местoм. Скoрoсть ветра над акватoриями крупных рек и oзёр, а также на вершинах хoлмoв на 2-5 м/с выше, чем в oбычных услoвиях.
Атмoсфернoе давление в разных тoчках местнoсти мoжет значительнo oтличаться oт давления на метеoстанции, в зависимoсти oт услoвий рельефа (при пoдъёме на 10 м давление пoнижается примернo на 1 мм рт.ст.).